User: anonymous   Login
Location: Newark
(44.2003°N, 3.2583°E)
Time: 07:14:18
(UTC+00:00)
Language:

Vanguard 1 - Orbit

View from above orbital plane
View from above orbital plane
View from above satellite
View from above satellite

Ground track
Ground track

The orbit data is extracted from the following two-line orbital elements,

1     5U 58002B   19295.22953643  .00000161  00000-0  21756-3 0  9992
2     5  34.2458 245.2400 1842727 355.8684   2.8383 10.84776171179373
Epoch (UTC): 22 October 2019 05:30:31
Eccentricity: 0.1842727
inclination: 34.2458°
perigee height: 653 km
apogee height: 3830 km
right ascension of ascending node: 245.2400°
argument of perigee: 355.8684°
revolutions per day: 10.84776171
mean anomaly at epoch: 2.8383°
orbit number at epoch: 17937

The dashed part of the orbit path shows where the satellite is in the earth's shadow,  

DLR